"Data set title: Gaging station water sample data. Usage: Event based table used with water chemistry collection from 01-Oct-2018 to 30-Sep-2019",,,,,,,,,,
,,,,,,,,,,,
"Site","Date","RecNum","SiteID","Flag_SiteID","LOGGERID","PROGID","SAMPLE_INST_0_0_01","Flag_SAMPLE_INST_0_0_01","STAGE_INST_0_0_01","Flag_STAGE_INST_0_0_01"
"","yyyy-MM-dd HH:mm:ss","count","","none","none","none","count","none","ft","none"
"nominal","datetime","nominal","data","code","nominal","nominal","data","code","data","code"
"GSMACK_114",2018-10-01 00:46:30,632,111,"",114,26829.0,35,"",0.0990,""
"GSMACK_114",2018-10-01 14:04:30,633,111,"",114,26829.0,36,"",0.0990,""
"GSMACK_114",2018-10-02 03:22:30,634,111,"",114,26829.0,37,"",0.0990,""
"GSMACK_114",2018-10-02 16:40:30,635,111,"",114,26829.0,38,"",0.0990,""
"GSMACK_114",2018-10-03 05:58:30,636,111,"",114,26829.0,39,"",0.0990,""
"GSMACK_114",2018-10-03 13:30:30,637,111,"",114,26829.0,40,"",0.0990,""
"GSMACK_114",2018-10-03 13:32:00,638,111,"",114,26829.0,41,"",0.0990,""
"GSMACK_114",2018-10-03 13:36:00,639,111,"",114,26829.0,42,"",0.0970,""
"GSMACK_114",2018-10-03 19:16:30,640,111,"",114,26829.0,1,"",0.0960,""
"GSMACK_114",2018-10-04 08:34:30,641,111,"",114,26829.0,2,"",0.0960,""
"GSMACK_114",2018-10-04 21:52:30,642,111,"",114,26829.0,3,"",0.0960,""
"GSMACK_114",2018-10-05 11:10:30,643,111,"",114,26829.0,4,"",0.0960,""
"GSMACK_114",2018-10-06 00:28:30,644,111,"",114,26829.0,5,"",0.2910,""
"GSMACK_114",2018-10-06 13:46:30,645,111,"",114,26829.0,6,"",0.1510,""
"GSMACK_114",2018-10-07 03:04:30,646,111,"",114,26829.0,7,"",0.1170,""
"GSMACK_114",2018-10-07 16:22:30,647,111,"",114,26829.0,8,"",0.1110,""
"GSMACK_114",2018-10-08 05:40:30,648,111,"",114,26829.0,9,"",0.1090,""
"GSMACK_114",2018-10-08 18:58:30,649,111,"",114,26829.0,10,"",0.1110,""
"GSMACK_114",2018-10-09 08:16:30,650,111,"",114,26829.0,11,"",0.1150,""
"GSMACK_114",2018-10-09 21:34:30,651,111,"",114,26829.0,12,"",0.1140,""
"GSMACK_114",2018-10-10 10:52:30,652,111,"",114,26829.0,13,"",0.1100,""
"GSMACK_114",2018-10-11 00:10:30,653,111,"",114,26829.0,14,"",0.1070,""
"GSMACK_114",2018-10-11 13:28:30,654,111,"",114,26829.0,15,"",0.1060,""
"GSMACK_114",2018-10-12 02:46:30,655,111,"",114,26829.0,16,"",0.1040,""
"GSMACK_114",2018-10-12 16:04:30,656,111,"",114,26829.0,17,"",0.1040,""
"GSMACK_114",2018-10-13 05:22:30,657,111,"",114,26829.0,18,"",0.1030,""
"GSMACK_114",2018-10-13 18:40:30,658,111,"",114,26829.0,19,"",0.1020,""
"GSMACK_114",2018-10-14 07:58:30,659,111,"",114,26829.0,20,"",0.1000,""
"GSMACK_114",2018-10-14 21:16:30,660,111,"",114,26829.0,21,"",0.1000,""
"GSMACK_114",2018-10-15 10:34:30,661,111,"",114,26829.0,22,"",0.1000,""
"GSMACK_114",2018-10-15 23:52:30,662,111,"",114,26829.0,23,"",0.0990,""
"GSMACK_114",2018-10-16 13:10:30,663,111,"",114,26829.0,24,"",0.1000,""
"GSMACK_114",2018-10-17 02:28:30,664,111,"",114,26829.0,25,"",0.1000,""
"GSMACK_114",2018-10-17 15:46:30,665,111,"",114,26829.0,26,"",0.0990,""
"GSMACK_114",2018-10-18 05:04:30,666,111,"",114,26829.0,27,"",0.0990,""
"GSMACK_114",2018-10-18 18:22:30,667,111,"",114,26829.0,28,"",0.0990,""
"GSMACK_114",2018-10-19 07:40:30,668,111,"",114,26829.0,29,"",0.0990,""
"GSMACK_114",2018-10-19 20:58:30,669,111,"",114,26829.0,30,"",0.0990,""
"GSMACK_114",2018-10-20 10:16:30,670,111,"",114,26829.0,31,"",0.0990,""
"GSMACK_114",2018-10-20 23:34:30,671,111,"",114,26829.0,32,"",0.0990,""
"GSMACK_114",2018-10-21 12:52:30,672,111,"",114,26829.0,33,"",0.0980,""
"GSMACK_114",2018-10-22 02:10:30,673,111,"",114,26829.0,34,"",0.0980,""
"GSMACK_114",2018-10-22 15:28:30,674,111,"",114,26829.0,35,"",0.0980,""
"GSMACK_114",2018-10-23 04:46:30,675,111,"",114,26829.0,36,"",0.0980,""
"GSMACK_114",2018-10-23 09:36:45,676,111,"",114,26829.0,37,"",0.0980,""
"GSMACK_114",2018-10-23 18:04:30,677,111,"",114,26829.0,1,"",0.0950,""
"GSMACK_114",2018-10-24 07:22:30,678,111,"",114,26829.0,2,"",0.0950,""
"GSMACK_114",2018-10-24 20:40:30,679,111,"",114,26829.0,3,"",0.0950,""
"GSMACK_114",2018-10-25 09:58:30,680,111,"",114,26829.0,4,"",0.0950,""
"GSMACK_114",2018-10-25 23:16:30,681,111,"",114,26829.0,5,"",0.0950,""
"GSMACK_114",2018-10-26 12:34:30,682,111,"",114,26829.0,6,"",0.1420,""
"GSMACK_114",2018-10-27 01:52:30,683,111,"",114,26829.0,7,"",0.1410,""
"GSMACK_114",2018-10-27 15:10:30,684,111,"",114,26829.0,8,"",0.1140,""
"GSMACK_114",2018-10-28 04:28:30,685,111,"",114,26829.0,9,"",0.1910,""
"GSMACK_114",2018-10-28 17:46:30,686,111,"",114,26829.0,10,"",0.2600,""
"GSMACK_114",2018-10-29 07:04:30,687,111,"",114,26829.0,11,"",0.3310,""
"GSMACK_114",2018-10-29 20:22:30,688,111,"",114,26829.0,12,"",0.2730,""
"GSMACK_114",2018-10-30 09:40:30,689,111,"",114,26829.0,13,"",0.1810,""
"GSMACK_114",2018-10-30 22:58:30,690,111,"",114,26829.0,14,"",0.1550,""
"GSMACK_114",2018-10-31 12:16:30,691,111,"",114,26829.0,15,"",0.2390,""
"GSMACK_114",2018-11-01 01:34:30,692,111,"",114,26829.0,16,"",0.3110,""
"GSMACK_114",2018-11-01 14:52:30,693,111,"",114,26829.0,17,"",0.2530,""
"GSMACK_114",2018-11-02 04:10:30,694,111,"",114,26829.0,18,"",0.2060,""
"GSMACK_114",2018-11-02 17:28:30,695,111,"",114,26829.0,19,"",0.2870,""
"GSMACK_114",2018-11-03 06:46:30,696,111,"",114,26829.0,20,"",0.2180,""
"GSMACK_114",2018-11-03 20:04:30,697,111,"",114,26829.0,21,"",0.1880,""
"GSMACK_114",2018-11-04 09:22:30,698,111,"",114,26829.0,22,"",0.3190,""
"GSMACK_114",2018-11-04 22:40:30,699,111,"",114,26829.0,23,"",0.2450,""
"GSMACK_114",2018-11-05 11:58:30,700,111,"",114,26829.0,24,"",0.2150,""
"GSMACK_114",2018-11-06 01:16:30,701,111,"",114,26829.0,25,"",0.2020,""
"GSMACK_114",2018-11-06 14:34:30,702,111,"",114,26829.0,26,"",0.1880,""
"GSMACK_114",2018-11-07 03:52:30,703,111,"",114,26829.0,27,"",0.1730,""
"GSMACK_114",2018-11-07 17:10:30,704,111,"",114,26829.0,28,"",0.1630,""
"GSMACK_114",2018-11-08 06:28:30,705,111,"",114,26829.0,29,"",0.1550,""
"GSMACK_114",2018-11-08 14:23:00,706,111,"",114,26829.0,30,"",0.1420,""
"GSMACK_114",2018-11-08 14:23:45,707,111,"",114,26829.0,31,"",0.1420,""
"GSMACK_114",2018-11-08 14:47:45,708,111,"",114,26829.0,32,"",0.1440,""
"GSMACK_114",2018-11-08 19:46:30,709,111,"",114,26829.0,33,"",0.1450,""
"GSMACK_114",2018-11-09 09:04:30,710,111,"",114,26829.0,34,"",0.1430,""
"GSMACK_114",2018-11-09 22:22:30,711,111,"",114,26829.0,35,"",0.1390,""
"GSMACK_114",2018-11-10 11:40:30,712,111,"",114,26829.0,36,"",0.1360,""
"GSMACK_114",2018-11-11 00:58:30,713,111,"",114,26829.0,37,"",0.1330,""
"GSMACK_114",2018-11-11 14:16:30,714,111,"",114,26829.0,38,"",0.1300,""
"GSMACK_114",2018-11-12 03:34:30,715,111,"",114,26829.0,39,"",0.1280,""
"GSMACK_114",2018-11-12 16:52:30,716,111,"",114,26829.0,40,"",0.1250,""
"GSMACK_114",2018-11-13 06:10:30,717,111,"",114,26829.0,41,"",0.1230,""
"GSMACK_114",2018-11-13 19:28:30,718,111,"",114,26829.0,42,"",0.1230,""
"GSMACK_114",2018-11-14 08:46:30,719,111,"",114,26829.0,43,"",0.1210,""
"GSMACK_114",2018-11-14 12:31:30,720,111,"",114,26829.0,44,"",0.1110,""
"GSMACK_114",2018-11-14 22:04:30,721,111,"",114,26829.0,1,"",0.1190,""
"GSMACK_114",2018-11-15 11:22:30,722,111,"",114,26829.0,2,"",0.1190,""
"GSMACK_114",2018-11-16 00:40:30,723,111,"",114,26829.0,3,"",0.1190,""
"GSMACK_114",2018-11-16 13:58:30,724,111,"",114,26829.0,4,"",0.1190,""
"GSMACK_114",2018-11-17 03:16:30,725,111,"",114,26829.0,5,"",0.1180,""
"GSMACK_114",2018-11-17 16:34:30,726,111,"",114,26829.0,6,"",0.1170,""
"GSMACK_114",2018-11-18 05:52:30,727,111,"",114,26829.0,7,"",0.1150,""
"GSMACK_114",2018-11-18 19:10:30,728,111,"",114,26829.0,8,"",0.1150,""
"GSMACK_114",2018-11-19 08:28:30,729,111,"",114,26829.0,9,"",0.1140,""
"GSMACK_114",2018-11-19 21:46:30,730,111,"",114,26829.0,10,"",0.1130,""
"GSMACK_114",2018-11-20 11:04:30,731,111,"",114,26829.0,11,"",0.1130,""
"GSMACK_114",2018-11-21 00:22:30,732,111,"",114,26829.0,12,"",0.1120,""
"GSMACK_114",2018-11-21 13:40:30,733,111,"",114,26829.0,13,"",0.1110,""
"GSMACK_114",2018-11-22 02:58:30,734,111,"",114,26829.0,14,"",0.1190,""
"GSMACK_114",2018-11-22 16:16:30,735,111,"",114,26829.0,15,"",0.2410,""
"GSMACK_114",2018-11-23 05:34:30,736,111,"",114,26829.0,16,"",0.2760,""
"GSMACK_114",2018-11-23 18:52:30,737,111,"",114,26829.0,17,"",0.4770,""
"GSMACK_114",2018-11-24 08:10:30,738,111,"",114,26829.0,18,"",0.3810,""
"GSMACK_114",2018-11-24 21:28:30,739,111,"",114,26829.0,19,"",0.3080,""
"GSMACK_114",2018-11-25 10:46:30,740,111,"",114,26829.0,20,"",0.2660,""
"GSMACK_114",2018-11-26 00:04:30,741,111,"",114,26829.0,21,"",0.2440,""
"GSMACK_114",2018-11-26 13:22:30,742,111,"",114,26829.0,22,"",0.2370,""
"GSMACK_114",2018-11-27 02:40:30,743,111,"",114,26829.0,23,"",0.2440,""
"GSMACK_114",2018-11-27 10:28:00,744,111,"",114,26829.0,24,"",0.6300,""
"GSMACK_114",2018-11-27 17:06:00,745,111,"",114,26829.0,25,"",0.6370,""
"GSMACK_114",2018-11-27 23:44:00,746,111,"",114,26829.0,26,"",0.7930,""
"GSMACK_114",2018-11-28 06:22:00,747,111,"",114,26829.0,27,"",0.7050,""
"GSMACK_114",2018-11-28 13:00:00,748,111,"",114,26829.0,28,"",0.6450,""
"GSMACK_114",2018-11-29 02:18:00,749,111,"",114,26829.0,29,"",0.5320,""
"GSMACK_114",2018-11-29 15:36:00,750,111,"",114,26829.0,30,"",0.4490,""
"GSMACK_114",2018-11-30 04:54:00,751,111,"",114,26829.0,31,"",0.4300,""
"GSMACK_114",2018-11-30 18:12:00,752,111,"",114,26829.0,32,"",0.4450,""
"GSMACK_114",2018-12-01 07:30:00,753,111,"",114,26829.0,33,"",0.3980,""
"GSMACK_114",2018-12-01 20:48:00,754,111,"",114,26829.0,34,"",0.3660,""
"GSMACK_114",2018-12-02 10:06:00,755,111,"",114,26829.0,35,"",0.3380,""
"GSMACK_114",2018-12-02 23:24:00,756,111,"",114,26829.0,36,"",0.3170,""
"GSMACK_114",2018-12-03 12:42:00,757,111,"",114,26829.0,37,"",0.2990,""
"GSMACK_114",2018-12-04 02:00:00,758,111,"",114,26829.0,38,"",0.2840,""
"GSMACK_114",2018-12-04 15:18:00,759,111,"",114,26829.0,39,"",0.2720,""
"GSMACK_114",2018-12-05 04:36:00,760,111,"",114,26829.0,40,"",0.2610,""
"GSMACK_114",2018-12-05 08:24:30,761,111,"",114,26829.0,41,"",0.2530,""
"GSMACK_114",2018-12-05 08:24:45,762,111,"",114,26829.0,42,"",0.2530,""
"GSMACK_114",2018-12-05 17:54:30,763,111,"",114,8077.0,1,"",0.2520,""
"GSMACK_114",2018-12-06 07:12:30,764,111,"",114,8077.0,2,"",0.2400,""
"GSMACK_114",2018-12-06 20:30:30,765,111,"",114,8077.0,3,"",0.2350,""
"GSMACK_114",2018-12-07 09:48:30,766,111,"",114,8077.0,4,"",0.2260,""
"GSMACK_114",2018-12-07 23:06:30,767,111,"",114,8077.0,5,"",0.2230,""
"GSMACK_114",2018-12-08 12:24:30,768,111,"",114,8077.0,6,"",0.2230,""
"GSMACK_114",2018-12-09 01:42:30,769,111,"",114,8077.0,7,"",0.2230,""
"GSMACK_114",2018-12-09 15:00:30,770,111,"",114,8077.0,8,"",0.2280,""
"GSMACK_114",2018-12-10 04:18:30,771,111,"",114,8077.0,9,"",0.3650,""
"GSMACK_114",2018-12-10 17:36:30,772,111,"",114,8077.0,10,"",0.3460,""
"GSMACK_114",2018-12-11 06:54:30,773,111,"",114,8077.0,11,"",0.3230,""
"GSMACK_114",2018-12-11 18:42:00,774,111,"",114,8077.0,12,"",0.6300,""
"GSMACK_114",2018-12-12 01:20:00,775,111,"",114,8077.0,13,"",0.7960,""
"GSMACK_114",2018-12-12 07:58:00,776,111,"",114,8077.0,14,"",0.6970,""
"GSMACK_114",2018-12-12 14:36:00,777,111,"",114,8077.0,15,"",0.6320,""
"GSMACK_114",2018-12-13 03:54:00,778,111,"",114,8077.0,16,"",0.5330,""
"GSMACK_114",2018-12-13 17:12:00,779,111,"",114,8077.0,17,"",0.4740,""
"GSMACK_114",2018-12-14 06:30:00,780,111,"",114,8077.0,18,"",0.4300,""
"GSMACK_114",2018-12-14 19:48:00,781,111,"",114,8077.0,19,"",0.4280,""
"GSMACK_114",2018-12-15 09:06:00,782,111,"",114,8077.0,20,"",0.3830,""
"GSMACK_114",2018-12-15 22:24:00,783,111,"",114,8077.0,21,"",0.3680,""
"GSMACK_114",2018-12-16 11:42:00,784,111,"",114,8077.0,22,"",0.3650,""
"GSMACK_114",2018-12-17 01:00:00,785,111,"",114,8077.0,23,"",0.4320,""
"GSMACK_114",2018-12-17 14:18:00,786,111,"",114,8077.0,24,"",0.4070,""
"GSMACK_114",2018-12-18 03:36:00,787,111,"",114,8077.0,25,"",0.5890,""
"GSMACK_114",2018-12-18 08:34:45,788,111,"",114,8077.0,26,"",0.8900,""
"GSMACK_114",2018-12-18 11:16:45,789,111,"",114,8077.0,27,"",1.2330,""
"GSMACK_114",2018-12-18 14:38:45,790,111,"",114,8077.0,28,"",1.1500,""
"GSMACK_114",2018-12-18 18:00:45,791,111,"",114,8077.0,29,"",1.1600,""
"GSMACK_114",2018-12-18 21:22:45,792,111,"",114,8077.0,30,"",1.1010,""
"GSMACK_114",2018-12-19 01:48:45,793,111,"",114,8077.0,31,"",1.0090,""
"GSMACK_114",2018-12-19 06:14:45,794,111,"",114,8077.0,32,"",0.9370,""
"GSMACK_114",2018-12-19 12:52:45,795,111,"",114,8077.0,33,"",0.8440,""
"GSMACK_114",2018-12-19 19:30:45,796,111,"",114,8077.0,34,"",0.7780,""
"GSMACK_114",2018-12-20 02:08:45,797,111,"",114,8077.0,35,"",0.7210,""
"GSMACK_114",2018-12-20 08:46:45,798,111,"",114,8077.0,36,"",0.6710,""
"GSMACK_114",2018-12-20 15:24:45,799,111,"",114,8077.0,37,"",0.8130,""
"GSMACK_114",2018-12-20 22:02:45,800,111,"",114,8077.0,38,"",0.7210,""
"GSMACK_114",2018-12-21 04:40:45,801,111,"",114,8077.0,39,"",0.6760,""
"GSMACK_114",2018-12-21 11:18:45,802,111,"",114,8077.0,40,"",0.6440,""
"GSMACK_114",2018-12-22 00:36:45,803,111,"",114,8077.0,41,"",0.5940,""
"GSMACK_114",2018-12-22 13:54:45,804,111,"",114,8077.0,42,"",0.5480,""
"GSMACK_114",2018-12-23 03:12:45,805,111,"",114,8077.0,43,"",0.5960,""
"GSMACK_114",2018-12-23 10:49:15,806,111,"",114,8077.0,44,"",0.6300,""
"GSMACK_114",2018-12-23 17:27:15,807,111,"",114,8077.0,45,"",0.8540,""
"GSMACK_114",2018-12-23 21:53:15,808,111,"",114,8077.0,46,"",0.9460,""
"GSMACK_114",2018-12-24 02:19:15,809,111,"",114,8077.0,47,"",0.9760,""
"GSMACK_114",2018-12-24 06:45:15,810,111,"",114,8077.0,48,"",0.9850,""
"GSMACK_114",2018-12-24 11:11:15,811,111,"",114,8077.0,49,"",0.9610,""
"GSMACK_114",2018-12-24 15:37:15,812,111,"",114,8077.0,50,"",0.9530,""
"GSMACK_114",2018-12-24 20:03:15,813,111,"",114,8077.0,51,"",0.9080,""
"GSMACK_114",2018-12-25 02:41:15,814,111,"",114,8077.0,52,"",0.8530,""
"GSMACK_114",2018-12-25 09:19:15,815,111,"",114,8077.0,53,"",0.8050,""
"GSMACK_114",2018-12-25 15:57:15,816,111,"",114,8077.0,54,"",0.7600,""
"GSMACK_114",2018-12-25 22:35:15,817,111,"",114,8077.0,55,"",0.7190,""
"GSMACK_114",2018-12-26 05:13:15,818,111,"",114,8077.0,56,"",0.6820,""
"GSMACK_114",2018-12-26 11:51:15,819,111,"",114,8077.0,57,"",0.6580,""
"GSMACK_114",2018-12-26 18:29:15,820,111,"",114,8077.0,58,"",0.6420,""
"GSMACK_114",2018-12-27 07:47:15,821,111,"",114,8077.0,59,"",0.5930,""
"GSMACK_114",2018-12-27 21:05:15,822,111,"",114,8077.0,60,"",0.5510,""
"GSMACK_114",2018-12-28 10:23:15,823,111,"",114,8077.0,61,"",0.5180,""
"GSMACK_114",2018-12-28 14:21:30,824,111,"",114,8077.0,62,"",0.5130,""
"GSMACK_114",2018-12-28 23:41:15,825,111,"",114,8077.0,1,"",0.4950,""
"GSMACK_114",2018-12-29 12:59:15,826,111,"",114,8077.0,2,"",0.4920,""
"GSMACK_114",2018-12-29 20:34:00,827,111,"",114,8077.0,3,"",0.6300,""
"GSMACK_114",2018-12-30 01:00:00,828,111,"",114,8077.0,4,"",1.0320,""
"GSMACK_114",2018-12-30 05:26:00,829,111,"",114,8077.0,5,"",0.9860,""
"GSMACK_114",2018-12-30 09:52:00,830,111,"",114,8077.0,6,"",0.9120,""
"GSMACK_114",2018-12-30 16:30:00,831,111,"",114,8077.0,7,"",0.8360,""
"GSMACK_114",2018-12-30 23:08:00,832,111,"",114,8077.0,8,"",0.7840,""
"GSMACK_114",2018-12-31 05:46:00,833,111,"",114,8077.0,9,"",0.7390,""
"GSMACK_114",2018-12-31 12:24:00,834,111,"",114,8077.0,10,"",0.6980,""
"GSMACK_114",2018-12-31 19:02:00,835,111,"",114,8077.0,11,"",0.6640,""
"GSMACK_114",2019-01-01 01:40:00,836,111,"",114,8077.0,12,"",0.6390,""
"GSMACK_114",2019-01-01 14:58:00,837,111,"",114,8077.0,13,"",0.5980,""
"GSMACK_114",2019-01-02 04:16:00,838,111,"",114,8077.0,14,"",0.5630,""
"GSMACK_114",2019-01-02 17:34:00,839,111,"",114,8077.0,15,"",0.5320,""
"GSMACK_114",2019-01-03 06:52:00,840,111,"",114,8077.0,16,"",0.5070,""
"GSMACK_114",2019-01-03 20:10:00,841,111,"",114,8077.0,17,"",0.4900,""
"GSMACK_114",2019-01-04 09:28:00,842,111,"",114,8077.0,18,"",0.4730,""
"GSMACK_114",2019-01-04 22:46:00,843,111,"",114,8077.0,19,"",0.4590,""
"GSMACK_114",2019-01-05 12:04:00,844,111,"",114,8077.0,20,"",0.4450,""
"GSMACK_114",2019-01-06 01:22:00,845,111,"",114,8077.0,21,"",0.4370,""
"GSMACK_114",2019-01-06 14:40:00,846,111,"",114,8077.0,22,"",0.4250,""
"GSMACK_114",2019-01-07 03:58:00,847,111,"",114,8077.0,23,"",0.4070,""
"GSMACK_114",2019-01-07 17:16:00,848,111,"",114,8077.0,24,"",0.3910,""
"GSMACK_114",2019-01-08 06:34:00,849,111,"",114,8077.0,25,"",0.4460,""
"GSMACK_114",2019-01-08 19:52:00,850,111,"",114,8077.0,26,"",0.4730,""
"GSMACK_114",2019-01-09 09:10:00,851,111,"",114,8077.0,27,"",0.4860,""
"GSMACK_114",2019-01-09 22:28:00,852,111,"",114,8077.0,28,"",0.5820,""
"GSMACK_114",2019-01-10 11:46:00,853,111,"",114,8077.0,29,"",0.5420,""
"GSMACK_114",2019-01-11 01:04:00,854,111,"",114,8077.0,30,"",0.5230,""
"GSMACK_114",2019-01-11 14:22:00,855,111,"",114,8077.0,31,"",0.5090,""
"GSMACK_114",2019-01-12 03:40:00,856,111,"",114,8077.0,32,"",0.4910,""
"GSMACK_114",2019-01-12 16:58:00,857,111,"",114,8077.0,33,"",0.4720,""
"GSMACK_114",2019-01-13 06:16:00,858,111,"",114,8077.0,34,"",0.4550,""
"GSMACK_114",2019-01-13 19:34:00,859,111,"",114,8077.0,35,"",0.4370,""
"GSMACK_114",2019-01-14 08:52:00,860,111,"",114,8077.0,36,"",0.4230,""
"GSMACK_114",2019-01-14 22:10:00,861,111,"",114,8077.0,37,"",0.4090,""
"GSMACK_114",2019-01-15 11:28:00,862,111,"",114,8077.0,38,"",0.4000,""
"GSMACK_114",2019-01-16 00:46:00,863,111,"",114,8077.0,39,"",0.3880,""
"GSMACK_114",2019-01-16 09:43:15,864,111,"",114,8077.0,40,"",0.3770,""
"GSMACK_114",2019-01-16 14:04:00,865,111,"",114,8077.0,1,"",0.3790,""
"GSMACK_114",2019-01-17 03:22:00,866,111,"",114,8077.0,2,"",0.3770,""
"GSMACK_114",2019-01-17 16:40:00,867,111,"",114,8077.0,3,"",0.3860,""
"GSMACK_114",2019-01-18 05:58:00,868,111,"",114,8077.0,4,"",0.3680,""
"GSMACK_114",2019-01-18 19:16:00,869,111,"",114,8077.0,5,"",0.6290,""
"GSMACK_114",2019-01-18 23:42:00,870,111,"",114,8077.0,6,"",1.0040,""
"GSMACK_114",2019-01-19 03:04:00,871,111,"",114,8077.0,7,"",1.1690,""
"GSMACK_114",2019-01-19 05:31:15,872,111,"",114,8077.0,8,"",1.3220,""
"GSMACK_114",2019-01-19 07:25:15,873,111,"",114,8077.0,9,"",1.4430,""
"GSMACK_114",2019-01-19 09:19:15,874,111,"",114,8077.0,10,"",1.4410,""
"GSMACK_114",2019-01-19 11:33:15,875,111,"",114,8077.0,11,"",1.3860,""
"GSMACK_114",2019-01-19 14:15:15,876,111,"",114,8077.0,12,"",1.3020,""
"GSMACK_114",2019-01-19 16:57:15,877,111,"",114,8077.0,13,"",1.2520,""
"GSMACK_114",2019-01-19 20:19:15,878,111,"",114,8077.0,14,"",1.1640,""
"GSMACK_114",2019-01-19 23:41:15,879,111,"",114,8077.0,15,"",1.1030,""
"GSMACK_114",2019-01-20 03:03:15,880,111,"",114,8077.0,16,"",1.0600,""
"GSMACK_114",2019-01-20 06:25:15,881,111,"",114,8077.0,17,"",1.0600,""
"GSMACK_114",2019-01-20 10:51:15,882,111,"",114,8077.0,18,"",1.0170,""
"GSMACK_114",2019-01-20 15:17:15,883,111,"",114,8077.0,19,"",0.9680,""
"GSMACK_114",2019-01-20 19:43:15,884,111,"",114,8077.0,20,"",0.9210,""
"GSMACK_114",2019-01-21 02:21:15,885,111,"",114,8077.0,21,"",0.8630,""
"GSMACK_114",2019-01-21 08:59:15,886,111,"",114,8077.0,22,"",0.8120,""
"GSMACK_114",2019-01-21 15:37:15,887,111,"",114,8077.0,23,"",0.7700,""
"GSMACK_114",2019-01-21 22:15:15,888,111,"",114,8077.0,24,"",0.7310,""
"GSMACK_114",2019-01-22 04:53:15,889,111,"",114,8077.0,25,"",0.6980,""
"GSMACK_114",2019-01-22 11:31:15,890,111,"",114,8077.0,26,"",0.6700,""
"GSMACK_114",2019-01-22 18:09:15,891,111,"",114,8077.0,27,"",0.6590,""
"GSMACK_114",2019-01-23 00:47:15,892,111,"",114,8077.0,28,"",0.7080,""
"GSMACK_114",2019-01-23 05:51:15,893,111,"",114,8077.0,29,"",0.8870,""
"GSMACK_114",2019-01-23 10:17:15,894,111,"",114,8077.0,30,"",1.0080,""
"GSMACK_114",2019-01-23 14:43:15,895,111,"",114,8077.0,31,"",1.0150,""
"GSMACK_114",2019-01-23 19:09:15,896,111,"",114,8077.0,32,"",0.9910,""
"GSMACK_114",2019-01-23 23:35:15,897,111,"",114,8077.0,33,"",0.9520,""
"GSMACK_114",2019-01-24 04:01:15,898,111,"",114,8077.0,34,"",0.9140,""
"GSMACK_114",2019-01-24 10:39:15,899,111,"",114,8077.0,35,"",0.8630,""
"GSMACK_114",2019-01-24 17:17:15,900,111,"",114,8077.0,36,"",0.8210,""
"GSMACK_114",2019-01-24 23:55:15,901,111,"",114,8077.0,37,"",0.7850,""
"GSMACK_114",2019-01-25 06:33:15,902,111,"",114,8077.0,38,"",0.7490,""
"GSMACK_114",2019-01-25 13:11:15,903,111,"",114,8077.0,39,"",0.7180,""
"GSMACK_114",2019-01-25 19:49:15,904,111,"",114,8077.0,40,"",0.6900,""
"GSMACK_114",2019-01-26 02:27:15,905,111,"",114,8077.0,41,"",0.6640,""
"GSMACK_114",2019-01-26 09:05:15,906,111,"",114,8077.0,42,"",0.6460,""
"GSMACK_114",2019-01-26 15:43:15,907,111,"",114,8077.0,43,"",0.6290,""
"GSMACK_114",2019-01-27 05:01:15,908,111,"",114,8077.0,44,"",0.6050,""
"GSMACK_114",2019-01-27 18:19:15,909,111,"",114,8077.0,45,"",0.5790,""
"GSMACK_114",2019-01-28 07:37:15,910,111,"",114,8077.0,46,"",0.5530,""
"GSMACK_114",2019-01-28 20:55:15,911,111,"",114,8077.0,47,"",0.5290,""
"GSMACK_114",2019-01-29 10:13:15,912,111,"",114,8077.0,48,"",0.5080,""
"GSMACK_114",2019-01-29 23:31:15,913,111,"",114,8077.0,49,"",0.4880,""
"GSMACK_114",2019-01-30 12:49:15,914,111,"",114,8077.0,50,"",0.4710,""
"GSMACK_114",2019-01-31 02:07:15,915,111,"",114,8077.0,51,"",0.4540,""
"GSMACK_114",2019-01-31 15:25:15,916,111,"",114,8077.0,52,"",0.4380,""
"GSMACK_114",2019-02-01 04:43:15,917,111,"",114,8077.0,53,"",0.4260,""
"GSMACK_114",2019-02-01 18:01:15,918,111,"",114,8077.0,54,"",0.4230,""
"GSMACK_114",2019-02-02 07:19:15,919,111,"",114,8077.0,55,"",0.4150,""
"GSMACK_114",2019-02-02 20:37:15,920,111,"",114,8077.0,56,"",0.4100,""
"GSMACK_114",2019-02-03 09:55:15,921,111,"",114,8077.0,57,"",0.5350,""
"GSMACK_114",2019-02-03 23:13:15,922,111,"",114,8077.0,58,"",0.4750,""
"GSMACK_114",2019-02-04 12:31:15,923,111,"",114,8077.0,59,"",0.4540,""
"GSMACK_114",2019-02-05 01:49:15,924,111,"",114,8077.0,60,"",0.4330,""
"GSMACK_114",2019-02-05 15:07:15,925,111,"",114,8077.0,61,"",0.4180,""
"GSMACK_114",2019-02-06 04:25:15,926,111,"",114,8077.0,62,"",0.4050,""
"GSMACK_114",2019-02-06 10:51:00,927,111,"",114,8077.0,63,"",0.3920,""
"GSMACK_114",2019-02-06 17:43:15,928,111,"",114,8077.0,1,"",0.3920,""
"GSMACK_114",2019-02-07 07:01:15,929,111,"",114,8077.0,2,"",0.3790,""
"GSMACK_114",2019-02-07 20:19:15,930,111,"",114,8077.0,3,"",0.3730,""
"GSMACK_114",2019-02-08 09:37:15,931,111,"",114,8077.0,4,"",0.3680,""
"GSMACK_114",2019-02-08 22:55:15,932,111,"",114,8077.0,5,"",0.3650,""
"GSMACK_114",2019-02-09 12:13:15,933,111,"",114,8077.0,6,"",0.3640,""
"GSMACK_114",2019-02-10 01:31:15,934,111,"",114,8077.0,7,"",0.3470,""
"GSMACK_114",2019-02-10 14:49:15,935,111,"",114,8077.0,8,"",0.3420,""
"GSMACK_114",2019-02-11 04:07:15,936,111,"",114,8077.0,9,"",0.3320,""
"GSMACK_114",2019-02-11 17:25:15,937,111,"",114,8077.0,10,"",0.3440,""
"GSMACK_114",2019-02-12 06:43:15,938,111,"",114,8077.0,11,"",0.3320,""
"GSMACK_114",2019-02-12 20:01:15,939,111,"",114,8077.0,12,"",0.3280,""
"GSMACK_114",2019-02-13 09:19:15,940,111,"",114,8077.0,13,"",0.3230,""
"GSMACK_114",2019-02-13 22:37:15,941,111,"",114,8077.0,14,"",0.3310,""
"GSMACK_114",2019-02-14 11:55:15,942,111,"",114,8077.0,15,"",0.3930,""
"GSMACK_114",2019-02-15 01:13:15,943,111,"",114,8077.0,16,"",0.4210,""
"GSMACK_114",2019-02-15 14:31:15,944,111,"",114,8077.0,17,"",0.3960,""
"GSMACK_114",2019-02-16 03:49:15,945,111,"",114,8077.0,18,"",0.3860,""
"GSMACK_114",2019-02-16 17:07:15,946,111,"",114,8077.0,19,"",0.3750,""
"GSMACK_114",2019-02-17 06:25:15,947,111,"",114,8077.0,20,"",0.3600,""
"GSMACK_114",2019-02-17 19:43:15,948,111,"",114,8077.0,21,"",0.3510,""
"GSMACK_114",2019-02-18 09:01:15,949,111,"",114,8077.0,22,"",0.3420,""
"GSMACK_114",2019-02-18 22:19:15,950,111,"",114,8077.0,23,"",0.3370,""
"GSMACK_114",2019-02-19 11:37:15,951,111,"",114,8077.0,24,"",0.3330,""
"GSMACK_114",2019-02-20 00:55:15,952,111,"",114,8077.0,25,"",0.3340,""
"GSMACK_114",2019-02-20 14:13:15,953,111,"",114,8077.0,26,"",0.3290,""
"GSMACK_114",2019-02-21 03:31:15,954,111,"",114,8077.0,27,"",0.3240,""
"GSMACK_114",2019-02-21 16:49:15,955,111,"",114,8077.0,28,"",0.3180,""
"GSMACK_114",2019-02-22 06:07:15,956,111,"",114,8077.0,29,"",0.3120,""